{"data":{"norad_id":55570,"intl_designator":"2023-020B","name":"STARLINK-5737","alt_names":[],"object_type":"PAYLOAD","status":"ACTIVE","operator":null,"country":"US","launch_date":"2023-02-12","launch_site_code":"AFETR","launch_vehicle":null,"mission":null,"orbit_class":"UNKNOWN","rcs_meters":null,"size_class":null,"mass_kg":null,"dimensions":null,"purposes":["comms"],"wikipedia_slug":null,"has_3d_model":false,"image_url":null,"decayed_at":null,"tle_current":{"epoch":"2026-05-25T03:18:43.067808Z","epoch_age_seconds":73841,"freshness":"FRESH","line1":"1 55570U 23020B   26145.13799847 -.00000086  00000+0  64261-5 0  9993","line2":"2 55570  43.0055 293.5449 0001738 265.3962  94.6692 15.27576168180608","mean_motion":15.27576168,"eccentricity":0.0001738,"inclination_deg":43.0055,"raan_deg":293.5449,"arg_perigee_deg":265.3962,"mean_anomaly_deg":94.6692,"bstar":6.4261e-6,"rev_number":18060,"period_min":94.26698518643,"perigee_km":481.86809431245,"apogee_km":484.25304658794,"semimajor_km":6861.1975704502,"source":"CELESTRAK","updated_at":"2026-05-25T13:38:17.833949Z"}}}